This demonstration page uses our WeatherBlox Daily Observations layout. Learn more.

39.01783, -85.05884

Hourly Observations for July 6, 2020

Temp ( °F °C ) Dew Point ( °F °C ) Humidity (%) Winds ( mph kmh ) Pressure ( in mb ) Visibility ( mi km ) Precip ( " mm )
12:52 am 00:52 Partly Cloudy 74 23.3 66 18.9 76 76 SW 8 13 29.95 1014 10 16.0934 0 0
1:52 am 01:52 Partly Cloudy 75 23.9 66 18.9 74 74 Calm 29.95 1014 10 16.0934 0 0
2:52 am 02:52 Mostly Clear 73 22.8 66 18.9 79 79 WNW 3 6 29.93 1014 10 16.0934 0 0
3:52 am 03:52 Partly Cloudy 73 22.8 66 18.9 79 79 VRB 5 7 29.93 1014 7 11.26538 0 0
4:52 am 04:52 Mostly Cloudy 76 24.4 67 19.4 74 74 N 5 7 29.94 1014 9 14.48406 0 0
5:52 am 05:52 Mostly Cloudy 76 24.4 67 19.4 74 74 VRB 3 6 29.95 1014 8 12.87472 0 0
6:52 am 06:52 Mostly Cloudy with Nearby Thunderstorms 76 24.4 68 20 77 77 E 3 6 29.96 1014 8 12.87472 0 0
7:19 am 07:19 Mostly Cloudy with Thunderstorms 76 24.4 69 20.6 79 79 WSW 10 17 29.98 1015 4 6.43736 0 0
7:52 am 07:52 Cloudy with Light Thunderstorms 74 23.3 69 20.6 85 85 WNW 7 11 29.99 1016 6 9.65604 0.001 0.001
8:52 am 08:52 Cloudy with Light Thunderstorms 73 22.8 68 20 84 84 SSW 12 19 30.01 1016 6 9.65604 0.02 0.508
9:08 am 09:08 Cloudy with Nearby Thunderstorms 73 22.8 69 20.6 87 87 SW 13 20 30.02 1017 6 9.65604 0.01 0.254
9:18 am 09:18 Cloudy with Light Thunderstorms 73 22.8 69 20.6 87 87 SSW 15 24 30.03 1017 6 9.65604 0.03 0.762
9:48 am 09:48 Cloudy with Light Rain 72 22 66 19 83 83 W 3 6 30.03 1017 6 9.65604 0.04 1.016
9:52 am 09:52 Mostly Cloudy with Light Thunderstorms 71 21.7 67 19.4 87 87 WNW 5 7 30.03 1017 8 12.87472 0.04 1.016
10:19 am 10:19 Mostly Cloudy with Light Rain 71 21.7 67 19.4 87 87 NW 9 15 30.04 1017 8 12.87472 0.001 0.001
10:52 am 10:52 Mostly Cloudy with Light Rain 73 22.8 69 20.6 87 87 NW 5 7 30.03 1017 7 11.26538 0.06 1.524
11:52 am 11:52 Mostly Cloudy 80 26.7 71 21.7 74 74 SSE 3 6 30.01 1016 7 11.26538 0.001 0.001
12:52 pm 12:52 Mostly Cloudy 84 28.9 72 22.2 67 67 SSE 7 11 30.01 1016 7 11.26538 0 0
1:52 pm 13:52 Mostly Cloudy 87 30.6 70 21.1 57 57 VRB 6 9 30 1016 7 11.26538 0 0
2:52 pm 14:52 Partly Cloudy 88 31.1 70 21.1 55 55 S 6 9 29.99 1016 8 12.87472 0 0
3:52 pm 15:52 Mostly Sunny 90 32.2 70 21.1 52 52 W 8 13 29.96 1015 8 12.87472 0 0
4:52 pm 16:52 Partly Cloudy 91 32.8 70 21.1 50 50 WNW 10 17 29.95 1014 8 12.87472 0 0
5:01 pm 17:01 Partly Cloudy with Nearby Thunderstorms 91 32.8 70 21.1 50 50 WNW 9 15 29.93 1013 8 12.87472 0 0
5:14 pm 17:14 Partly Cloudy with Thunderstorms 91 32.8 69 20.6 49 49 NW 9 15 29.92 1013 8 12.87472 0 0
5:32 pm 17:32 Mostly Cloudy with Thunderstorms 88 31.1 68 20 52 52 SSE 17 28 29.93 1014 8 12.87472 0 0
5:52 pm 17:52 Mostly Cloudy with Thunderstorms 85 29.4 62 16.7 46 46 ESE 17 28 29.95 1014 9 14.48406 0 0
6:24 pm 18:24 Cloudy with Light Thunderstorms 78 25.6 66 18.9 67 67 SE 17 28 30.01 1016 3 4.82802 0.001 0.001
6:41 pm 18:41 Cloudy with Thunderstorms 72 22.2 67 19.4 84 84 SSW 10 17 30.03 1017 3 4.82802 0.02 0.508
6:48 pm 18:48 Cloudy with Heavy Thunderstorms 72 22 66 19 83 83 WSW 8 13 30.02 1017 2 3.21868 0.11 2.794
6:52 pm 18:52 Cloudy with Heavy Thunderstorms 71 21.7 68 20 90 90 W 6 9 30.02 1017 2 3.21868 0.18 4.572
7:20 pm 19:20 Cloudy with Light Rain 74 23.3 70 21.1 88 88 N 10 17 30 1016 6 9.65604 0.09 2.286
7:52 pm 19:52 Cloudy 76 24.4 70 21.1 82 82 NNE 8 13 29.98 1015 9 14.48406 0.1 2.54
8:52 pm 20:52 Mostly Cloudy 76 24.4 68 20 77 77 Calm 29.96 1015 8 12.87472 0.001 0.001
9:52 pm 21:52 Mostly Cloudy 75 23.9 70 21.1 84 84 N 6 9 29.97 1015 7 11.26538 0 0
10:52 pm 22:52 Partly Cloudy with Mist and Fog 71 21.7 69 20.6 94 94 SSW 3 6 30.01 1016 6 9.65604 0 0
11:52 pm 23:52 Mostly Cloudy 72 22.2 69 20.6 91 91 S 7 11 30.01 1016 7 11.26538 0 0

Powered by AerisWeather